| time (UTC) | temp F | wind direction | speed MPH | gust MPH | rain 1hr in | rain 24hr in | rain mn in | humidity % | barometer mb |
| 20260507132505 | 50 | 219 | 2.0 | 3.0 | 0.00 | 0.00 | 0.00 | 81 | 1020.5 |
| 20260507132005 | 50 | 223 | 1.0 | 3.0 | 0.00 | 0.00 | 0.00 | 80 | 1020.5 |
| 20260507131526 | 50 | 225 | 2.0 | 3.0 | 0.00 | 0.00 | 0.00 | 80 | 1020.5 |
| 20260507131010 | 50 | 196 | 1.0 | 3.0 | 0.00 | 0.00 | 0.00 | 80 | 1020.4 |
| 20260507130510 | 51 | 238 | 1.0 | 4.0 | 0.00 | 0.00 | 0.00 | 80 | 1020.4 |
| 20260507130040 | 51 | 232 | 1.0 | 4.0 | 0.00 | 0.00 | 0.00 | 80 | 1020.4 |
| 20260507125510 | 51 | 205 | 2.0 | 5.0 | 0.00 | 0.00 | 0.00 | 80 | 1020.4 |
| 20260507125006 | 51 | 201 | 2.0 | 5.0 | 0.00 | 0.00 | 0.00 | 79 | 1020.4 |
| 20260507124526 | 51 | 256 | 3.0 | 5.0 | 0.00 | 0.00 | 0.00 | 78 | 1020.5 |
| 20260507124007 | 51 | 223 | 3.0 | 8.0 | 0.00 | 0.00 | 0.00 | 79 | 1020.5 |
| 20260507123506 | 51 | 225 | 3.0 | 8.0 | 0.00 | 0.00 | 0.00 | 78 | 1020.5 |
| 20260507123011 | 51 | 216 | 4.0 | 7.0 | 0.00 | 0.00 | 0.00 | 79 | 1020.5 |
| 20260507122505 | 51 | 244 | 2.0 | 4.0 | 0.00 | 0.00 | 0.00 | 80 | 1020.5 |
| 20260507122006 | 51 | 212 | 1.0 | 4.0 | 0.00 | 0.00 | 0.00 | 80 | 1020.5 |
| 20260507121518 | 51 | 209 | 3.0 | 6.0 | 0.00 | 0.00 | 0.00 | 80 | 1020.6 |
| 20260507121009 | 51 | 223 | 3.0 | 6.0 | 0.00 | 0.00 | 0.00 | 79 | 1020.6 |
| 20260507120509 | 51 | 222 | 2.0 | 8.0 | 0.00 | 0.00 | 0.00 | 79 | 1020.6 |
| 20260507120027 | 51 | 225 | 3.0 | 8.0 | 0.00 | 0.00 | 0.00 | 79 | 1020.7 |
| 20260507115510 | 51 | 232 | 2.0 | 5.0 | 0.00 | 0.00 | 0.00 | 79 | 1020.8 |
| 20260507115011 | 51 | 222 | 2.0 | 3.0 | 0.00 | 0.00 | 0.00 | 80 | 1020.7 |
| 20260507114523 | 51 | 247 | 2.0 | 3.0 | 0.00 | 0.00 | 0.00 | 80 | 1020.7 |
| 20260507114008 | 51 | 195 | 2.0 | 5.0 | 0.00 | 0.00 | 0.00 | 80 | 1020.8 |
| 20260507113512 | 51 | 224 | 2.0 | 5.0 | 0.00 | 0.00 | 0.00 | 80 | 1020.8 |
| 20260507113008 | 51 | 244 | 1.0 | 4.0 | 0.00 | 0.00 | 0.00 | 81 | 1020.9 |
| 20260507112505 | 51 | 238 | 1.0 | 4.0 | 0.00 | 0.00 | 0.00 | 81 | 1021.0 |
| 20260507112004 | 51 | 232 | 2.0 | 4.0 | 0.00 | 0.00 | 0.00 | 82 | 1021.0 |
| 20260507111517 | 51 | 275 | 2.0 | 4.0 | 0.00 | 0.00 | 0.00 | 81 | 1021.0 |
| 20260507111008 | 52 | 272 | 2.0 | 4.0 | 0.00 | 0.00 | 0.00 | 80 | 1020.9 |
| 20260507110506 | 52 | 242 | 2.0 | 4.0 | 0.00 | 0.00 | 0.00 | 79 | 1020.9 |
| 20260507110026 | 52 | 234 | 1.0 | 3.0 | 0.00 | 0.00 | 0.00 | 78 | 1020.9 |
| 20260507105510 | 52 | 236 | 1.0 | 3.0 | 0.00 | 0.00 | 0.00 | 78 | 1021.0 |
| 20260507105007 | 52 | 166 | 1.0 | 5.0 | 0.00 | 0.00 | 0.00 | 78 | 1021.0 |
| 20260507104524 | 52 | 261 | 3.0 | 5.0 | 0.00 | 0.00 | 0.00 | 78 | 1020.9 |
| 20260507104011 | 52 | 217 | 0.0 | 3.0 | 0.00 | 0.00 | 0.00 | 78 | 1021.0 |
| 20260507103508 | 52 | 211 | 1.0 | 4.0 | 0.00 | 0.00 | 0.00 | 78 | 1021.0 |
| 20260507103028 | 52 | 210 | 1.0 | 5.0 | 0.00 | 0.00 | 0.00 | 78 | 1021.0 |
| 20260507102509 | 52 | 232 | 2.0 | 5.0 | 0.00 | 0.00 | 0.00 | 77 | 1021.0 |
| 20260507102007 | 52 | 182 | 3.0 | 5.0 | 0.00 | 0.00 | 0.00 | 77 | 1021.0 |
| 20260507101510 | 52 | 215 | 3.0 | 4.0 | 0.00 | 0.00 | 0.00 | 78 | 1021.0 |
| 20260507101009 | 52 | 212 | 1.0 | 4.0 | 0.00 | 0.00 | 0.00 | 78 | 1021.0 |
| 20260507100505 | 52 | 207 | 2.0 | 5.0 | 0.00 | 0.00 | 0.00 | 78 | 1021.0 |
| 20260507100023 | 52 | 194 | 3.0 | 5.0 | 0.00 | 0.00 | 0.00 | 78 | 1021.0 |
| 20260507095506 | 52 | 223 | 2.0 | 4.0 | 0.00 | 0.00 | 0.00 | 78 | 1021.0 |
| 20260507095010 | 52 | 195 | 2.0 | 4.0 | 0.00 | 0.00 | 0.00 | 78 | 1020.9 |
| 20260507094523 | 52 | 237 | 1.0 | 4.0 | 0.00 | 0.00 | 0.00 | 78 | 1020.9 |
| 20260507094007 | 52 | 198 | 2.0 | 4.0 | 0.00 | 0.00 | 0.00 | 78 | 1020.9 |
| 20260507093507 | 52 | 228 | 2.0 | 6.0 | 0.00 | 0.00 | 0.00 | 78 | 1020.9 |
| 20260507093025 | 52 | 221 | 2.0 | 6.0 | 0.00 | 0.00 | 0.00 | 78 | 1021.0 |
| 20260507092514 | 52 | 225 | 2.0 | 6.0 | 0.00 | 0.00 | 0.00 | 78 | 1021.0 |
| 20260507092012 | 52 | 226 | 3.0 | 7.0 | 0.00 | 0.00 | 0.00 | 78 | 1021.0 |
| 20260507091526 | 52 | 211 | 3.0 | 7.0 | 0.00 | 0.00 | 0.00 | 78 | 1021.0 |
| 20260507091005 | 52 | 224 | 2.0 | 7.0 | 0.00 | 0.00 | 0.00 | 79 | 1021.0 |
| 20260507090510 | 52 | 248 | 3.0 | 6.0 | 0.00 | 0.00 | 0.00 | 79 | 1020.9 |
| 20260507090015 | 52 | 228 | 2.0 | 5.0 | 0.00 | 0.00 | 0.00 | 80 | 1021.0 |
| 20260507085506 | 52 | 211 | 3.0 | 5.0 | 0.00 | 0.00 | 0.00 | 80 | 1021.0 |
| 20260507085006 | 52 | 205 | 2.0 | 6.0 | 0.00 | 0.00 | 0.00 | 80 | 1021.0 |
| 20260507084520 | 52 | 239 | 3.0 | 6.0 | 0.00 | 0.00 | 0.00 | 80 | 1021.1 |
| 20260507084009 | 52 | 236 | 3.0 | 6.0 | 0.00 | 0.00 | 0.00 | 80 | 1021.0 |
| 20260507083510 | 52 | 211 | 3.0 | 8.0 | 0.00 | 0.00 | 0.00 | 81 | 1021.1 |
| 20260507083024 | 52 | 240 | 2.0 | 8.0 | 0.00 | 0.00 | 0.00 | 81 | 1021.1 |
| 20260507082510 | 52 | 192 | 3.0 | 7.0 | 0.00 | 0.00 | 0.00 | 82 | 1021.0 |
| 20260507082011 | 52 | 201 | 3.0 | 6.0 | 0.00 | 0.00 | 0.00 | 82 | 1021.1 |
| 20260507081528 | 52 | 227 | 2.0 | 6.0 | 0.00 | 0.00 | 0.00 | 82 | 1021.1 |
| 20260507081011 | 52 | 216 | 3.0 | 6.0 | 0.00 | 0.00 | 0.00 | 82 | 1021.1 |
| 20260507080507 | 52 | 226 | 3.0 | 4.0 | 0.00 | 0.00 | 0.00 | 82 | 1021.1 |
| 20260507080014 | 52 | 228 | 2.0 | 5.0 | 0.00 | 0.00 | 0.00 | 83 | 1021.1 |
| 20260507075507 | 52 | 194 | 2.0 | 5.0 | 0.00 | 0.00 | 0.00 | 82 | 1021.3 |
| 20260507075007 | 52 | 224 | 2.0 | 4.0 | 0.00 | 0.00 | 0.00 | 83 | 1021.2 |
| 20260507074519 | 52 | 188 | 1.0 | 4.0 | 0.00 | 0.00 | 0.00 | 83 | 1021.3 |
| 20260507074008 | 52 | 207 | 2.0 | 5.0 | 0.00 | 0.00 | 0.00 | 83 | 1021.3 |
| 20260507073506 | 52 | 208 | 3.0 | 5.0 | 0.00 | 0.00 | 0.00 | 83 | 1021.3 |
| 20260507073022 | 52 | 200 | 2.0 | 6.0 | 0.00 | 0.00 | 0.00 | 82 | 1021.1 |
| 20260507072515 | 52 | 205 | 2.0 | 6.0 | 0.00 | 0.00 | 0.00 | 82 | 1021.1 |
| 20260507072009 | 52 | 212 | 2.0 | 6.0 | 0.00 | 0.00 | 0.00 | 82 | 1021.1 |
| 20260507071523 | 52 | 197 | 3.0 | 6.0 | 0.00 | 0.01 | 0.00 | 82 | 1021.1 |
| 20260507071009 | 52 | 231 | 2.0 | 5.0 | 0.00 | 0.01 | 0.00 | 83 | 1021.1 |
| 20260507070511 | 52 | 239 | 1.0 | 6.0 | 0.00 | 0.01 | 0.00 | 83 | 1021.1 |
| 20260507070036 | 52 | 228 | 3.0 | 6.0 | 0.00 | 0.01 | 0.00 | 83 | 1021.2 |
| 20260507065503 | 52 | 228 | 3.0 | 5.0 | 0.00 | 0.01 | 0.01 | 83 | 1021.3 |
| 20260507065003 | 52 | 221 | 2.0 | 5.0 | 0.00 | 0.01 | 0.01 | 83 | 1021.3 |
| 20260507064505 | 52 | 229 | 2.0 | 5.0 | 0.00 | 0.01 | 0.01 | 84 | 1021.3 |
| 20260507064003 | 52 | 240 | 3.0 | 7.0 | 0.00 | 0.01 | 0.01 | 84 | 1021.3 |
| 20260507063500 | 52 | 190 | 3.0 | 7.0 | 0.00 | 0.01 | 0.01 | 84 | 1021.3 |
| 20260507063002 | 52 | 209 | 2.0 | 5.0 | 0.00 | 0.01 | 0.01 | 85 | 1021.3 |
| 20260507062505 | 52 | 276 | 3.0 | 5.0 | 0.00 | 0.01 | 0.01 | 85 | 1021.3 |
| 20260507062003 | 52 | 198 | 1.0 | 7.0 | 0.00 | 0.01 | 0.01 | 85 | 1021.3 |
| 20260507061502 | 52 | 240 | 3.0 | 7.0 | 0.00 | 0.01 | 0.01 | 85 | 1021.3 |
| 20260507061003 | 52 | 198 | 3.0 | 8.0 | 0.00 | 0.01 | 0.01 | 86 | 1021.3 |
| 20260507060502 | 52 | 250 | 5.0 | 8.0 | 0.00 | 0.01 | 0.01 | 86 | 1021.3 |
| 20260507060015 | 52 | 229 | 3.0 | 6.0 | 0.00 | 0.01 | 0.01 | 86 | 1021.3 |
| 20260507055503 | 52 | 230 | 4.0 | 7.0 | 0.00 | 0.01 | 0.01 | 86 | 1021.3 |
| 20260507055003 | 52 | 240 | 3.0 | 8.0 | 0.00 | 0.01 | 0.01 | 86 | 1021.1 |
| 20260507054506 | 52 | 242 | 3.0 | 8.0 | 0.00 | 0.01 | 0.01 | 86 | 1021.2 |
| 20260507054004 | 52 | 240 | 4.0 | 6.0 | 0.00 | 0.01 | 0.01 | 86 | 1021.1 |
| 20260507053504 | 52 | 263 | 4.0 | 6.0 | 0.00 | 0.01 | 0.01 | 86 | 1021.3 |
| 20260507053006 | 52 | 212 | 3.0 | 6.0 | 0.00 | 0.01 | 0.01 | 87 | 1021.1 |
| 20260507052503 | 52 | 233 | 3.0 | 7.0 | 0.00 | 0.01 | 0.01 | 87 | 1021.2 |
| 20260507052004 | 52 | 229 | 3.0 | 7.0 | 0.00 | 0.01 | 0.01 | 87 | 1021.2 |
| 20260507051507 | 52 | 232 | 3.0 | 5.0 | 0.00 | 0.01 | 0.01 | 87 | 1021.2 |
| 20260507051004 | 52 | 245 | 3.0 | 5.0 | 0.00 | 0.01 | 0.01 | 87 | 1021.2 |
| 20260507050504 | 52 | 260 | 1.0 | 6.0 | 0.00 | 0.01 | 0.01 | 86 | 1021.1 |
| 20260507050009 | 52 | 268 | 2.0 | 6.0 | 0.00 | 0.01 | 0.01 | 86 | 1021.1 |
| 20260507045504 | 52 | 268 | 2.0 | 7.0 | 0.00 | 0.01 | 0.01 | 86 | 1021.1 |
| 20260507045002 | 53 | 225 | 2.0 | 7.0 | 0.00 | 0.01 | 0.01 | 85 | 1021.2 |
| 20260507044506 | 53 | 261 | 3.0 | 8.0 | 0.00 | 0.01 | 0.01 | 84 | 1021.3 |
| 20260507044003 | 53 | 264 | 4.0 | 8.0 | 0.00 | 0.01 | 0.01 | 84 | 1021.2 |
| 20260507043503 | 53 | 234 | 3.0 | 7.0 | 0.00 | 0.01 | 0.01 | 83 | 1021.1 |
| 20260507043005 | 53 | 182 | 4.0 | 8.0 | 0.00 | 0.01 | 0.01 | 83 | 1021.1 |
| 20260507042503 | 53 | 240 | 2.0 | 10.0 | 0.00 | 0.01 | 0.01 | 83 | 1021.0 |
| 20260507042003 | 54 | 260 | 4.0 | 10.0 | 0.00 | 0.01 | 0.01 | 82 | 1021.0 |
| 20260507041520 | 54 | 223 | 4.0 | 8.0 | 0.00 | 0.01 | 0.01 | 81 | 1021.0 |
| 20260507041004 | 54 | 219 | 4.0 | 9.0 | 0.00 | 0.01 | 0.01 | 80 | 1021.0 |
| 20260507040505 | 54 | 224 | 4.0 | 9.0 | 0.00 | 0.01 | 0.01 | 80 | 1021.0 |
| 20260507040006 | 54 | 214 | 5.0 | 9.0 | 0.00 | 0.01 | 0.01 | 80 | 1021.0 |
| 20260507035503 | 54 | 283 | 4.0 | 11.0 | 0.00 | 0.01 | 0.01 | 79 | 1020.9 |
| 20260507035003 | 54 | 223 | 5.0 | 11.0 | 0.00 | 0.01 | 0.01 | 79 | 1020.9 |
| 20260507034506 | 54 | 233 | 7.0 | 11.0 | 0.00 | 0.01 | 0.01 | 79 | 1020.9 |
| 20260507034002 | 54 | 217 | 4.0 | 9.0 | 0.00 | 0.01 | 0.01 | 79 | 1020.8 |
| 20260507033504 | 54 | 246 | 4.0 | 9.0 | 0.00 | 0.01 | 0.01 | 79 | 1020.8 |
| 20260507033006 | 54 | 253 | 4.0 | 7.0 | 0.00 | 0.01 | 0.01 | 79 | 1020.7 |
| 20260507032506 | 54 | 223 | 3.0 | 8.0 | 0.00 | 0.01 | 0.01 | 79 | 1020.7 |
| 20260507032003 | 54 | 242 | 4.0 | 8.0 | 0.00 | 0.01 | 0.01 | 79 | 1020.7 |
| 20260507031507 | 54 | 213 | 2.0 | 9.0 | 0.00 | 0.01 | 0.01 | 79 | 1020.6 |
| 20260507031009 | 54 | 242 | 4.0 | 9.0 | 0.00 | 0.01 | 0.01 | 79 | 1020.6 |
| 20260507030506 | 55 | 263 | 3.0 | 8.0 | 0.00 | 0.01 | 0.01 | 79 | 1020.6 |
| 20260507030005 | 55 | 223 | 5.0 | 9.0 | 0.00 | 0.01 | 0.01 | 78 | 1020.6 |
| 20260507025504 | 55 | 235 | 3.0 | 9.0 | 0.00 | 0.01 | 0.01 | 78 | 1020.6 |
| 20260507025003 | 55 | 265 | 3.0 | 7.0 | 0.00 | 0.01 | 0.01 | 78 | 1020.6 |
| 20260507024509 | 55 | 236 | 2.0 | 7.0 | 0.00 | 0.01 | 0.01 | 78 | 1020.6 |
| 20260507024005 | 55 | 266 | 3.0 | 8.0 | 0.00 | 0.01 | 0.01 | 78 | 1020.5 |
| 20260507023507 | 55 | 218 | 4.0 | 9.0 | 0.00 | 0.01 | 0.01 | 77 | 1020.5 |
| 20260507023006 | 55 | 257 | 5.0 | 9.0 | 0.00 | 0.01 | 0.01 | 77 | 1020.6 |
| 20260507022507 | 55 | 206 | 3.0 | 11.0 | 0.00 | 0.01 | 0.01 | 77 | 1020.5 |
| 20260507022010 | 55 | 284 | 6.0 | 12.0 | 0.00 | 0.01 | 0.01 | 76 | 1020.5 |
| 20260507021508 | 55 | 248 | 7.0 | 12.0 | 0.00 | 0.01 | 0.01 | 76 | 1020.5 |
| 20260507021002 | 55 | 260 | 7.0 | 12.0 | 0.00 | 0.01 | 0.01 | 77 | 1020.5 |
| 20260507020505 | 55 | 269 | 4.0 | 11.0 | 0.00 | 0.01 | 0.01 | 77 | 1020.5 |
| 20260507020007 | 55 | 232 | 4.0 | 11.0 | 0.00 | 0.01 | 0.01 | 77 | 1020.5 |
| 20260507015506 | 56 | 240 | 6.0 | 12.0 | 0.00 | 0.01 | 0.01 | 76 | 1020.5 |
| 20260507015002 | 56 | 254 | 7.0 | 11.0 | 0.00 | 0.01 | 0.01 | 76 | 1020.5 |
| 20260507014510 | 56 | 250 | 4.0 | 11.0 | 0.00 | 0.01 | 0.01 | 75 | 1020.5 |
| 20260507014003 | 56 | 208 | 6.0 | 10.0 | 0.00 | 0.01 | 0.01 | 75 | 1020.5 |
| 20260507013505 | 56 | 249 | 6.0 | 10.0 | 0.00 | 0.01 | 0.01 | 75 | 1020.5 |
| 20260507013006 | 56 | 211 | 6.0 | 10.0 | 0.00 | 0.01 | 0.01 | 75 | 1020.5 |
| 20260507012507 | 56 | 213 | 5.0 | 9.0 | 0.00 | 0.01 | 0.01 | 75 | 1020.5 |
| 20260507012005 | 56 | 254 | 5.0 | 9.0 | 0.00 | 0.01 | 0.01 | 75 | 1020.5 |
| 20260507011516 | 56 | 240 | 5.0 | 9.0 | 0.00 | 0.01 | 0.01 | 75 | 1020.5 |
| 20260507011002 | 56 | 254 | 6.0 | 11.0 | 0.00 | 0.01 | 0.01 | 75 | 1020.5 |
| 20260507010506 | 56 | 249 | 5.0 | 12.0 | 0.00 | 0.01 | 0.01 | 75 | 1020.5 |
| 20260507010006 | 56 | 220 | 7.0 | 12.0 | 0.00 | 0.01 | 0.01 | 75 | 1020.5 |
| 20260507005506 | 56 | 217 | 7.0 | 11.0 | 0.00 | 0.01 | 0.01 | 75 | 1020.5 |
| 20260507005006 | 56 | 262 | 7.0 | 11.0 | 0.00 | 0.01 | 0.01 | 76 | 1020.6 |
| 20260507004517 | 56 | 246 | 5.0 | 11.0 | 0.00 | 0.01 | 0.01 | 75 | 1020.6 |
| 20260507004004 | 56 | 277 | 6.0 | 11.0 | 0.00 | 0.01 | 0.01 | 75 | 1020.6 |
| 20260507003506 | 56 | 233 | 5.0 | 13.0 | 0.00 | 0.01 | 0.01 | 76 | 1020.6 |
| 20260507003008 | 56 | 268 | 7.0 | 13.0 | 0.00 | 0.01 | 0.01 | 75 | 1020.5 |
| 20260507002506 | 56 | 223 | 6.0 | 12.0 | 0.00 | 0.01 | 0.01 | 76 | 1020.6 |
| 20260507002007 | 56 | 240 | 6.0 | 10.0 | 0.00 | 0.01 | 0.01 | 76 | 1020.6 |
| 20260507001508 | 56 | 276 | 5.0 | 10.0 | 0.00 | 0.01 | 0.01 | 76 | 1020.5 |
| 20260507001005 | 56 | 246 | 4.0 | 10.0 | 0.00 | 0.01 | 0.01 | 76 | 1020.5 |
| 20260507000505 | 56 | 228 | 4.0 | 9.0 | 0.00 | 0.01 | 0.01 | 77 | 1020.6 |
| 20260507000011 | 56 | 221 | 3.0 | 9.0 | 0.00 | 0.01 | 0.01 | 78 | 1020.5 |
| 20260506235506 | 56 | 259 | 4.0 | 10.0 | 0.00 | 0.01 | 0.01 | 76 | 1020.5 |
| 20260506235006 | 56 | 269 | 5.0 | 12.0 | 0.00 | 0.01 | 0.01 | 76 | 1020.6 |
| 20260506234511 | 56 | 267 | 5.0 | 12.0 | 0.00 | 0.01 | 0.01 | 76 | 1020.6 |
| 20260506234006 | 56 | 275 | 7.0 | 14.0 | 0.00 | 0.01 | 0.01 | 76 | 1020.6 |
| 20260506233506 | 57 | 263 | 6.0 | 14.0 | 0.00 | 0.01 | 0.01 | 75 | 1020.5 |
| 20260506233006 | 56 | 276 | 3.0 | 8.0 | 0.00 | 0.01 | 0.01 | 77 | 1020.6 |
| 20260506232503 | 56 | 260 | 6.0 | 11.0 | 0.00 | 0.01 | 0.01 | 76 | 1020.7 |
| 20260506232006 | 57 | 287 | 5.0 | 11.0 | 0.00 | 0.01 | 0.01 | 75 | 1020.7 |
| 20260506231522 | 57 | 281 | 5.0 | 10.0 | 0.00 | 0.01 | 0.01 | 75 | 1020.6 |
| 20260506231006 | 57 | 284 | 5.0 | 10.0 | 0.00 | 0.01 | 0.01 | 74 | 1020.6 |
| 20260506230504 | 57 | 242 | 5.0 | 13.0 | 0.00 | 0.01 | 0.01 | 74 | 1020.7 |
| 20260506230013 | 57 | 272 | 7.0 | 13.0 | 0.00 | 0.01 | 0.01 | 73 | 1020.6 |
| 20260506225505 | 57 | 254 | 6.0 | 11.0 | 0.00 | 0.01 | 0.01 | 73 | 1020.7 |
| 20260506225006 | 57 | 257 | 7.0 | 11.0 | 0.00 | 0.01 | 0.01 | 72 | 1020.7 |
| 20260506224513 | 57 | 261 | 7.0 | 10.0 | 0.00 | 0.01 | 0.01 | 73 | 1020.7 |
| 20260506224007 | 57 | 254 | 5.0 | 12.0 | 0.00 | 0.01 | 0.01 | 74 | 1020.7 |
| 20260506223507 | 57 | 275 | 7.0 | 12.0 | 0.00 | 0.01 | 0.01 | 74 | 1020.8 |
| 20260506223009 | 57 | 215 | 5.0 | 11.0 | 0.00 | 0.01 | 0.01 | 75 | 1020.7 |
| 20260506222507 | 57 | 261 | 6.0 | 11.0 | 0.00 | 0.01 | 0.01 | 74 | 1020.8 |
| 20260506222008 | 57 | 248 | 5.0 | 10.0 | 0.00 | 0.01 | 0.01 | 74 | 1020.9 |
| 20260506221508 | 57 | 261 | 5.0 | 11.0 | 0.00 | 0.01 | 0.01 | 75 | 1020.9 |
| 20260506221012 | 56 | 248 | 6.0 | 11.0 | 0.00 | 0.01 | 0.01 | 74 | 1021.0 |
| 20260506220504 | 56 | 236 | 5.0 | 10.0 | 0.00 | 0.01 | 0.01 | 75 | 1020.9 |
| 20260506220010 | 56 | 262 | 5.0 | 10.0 | 0.00 | 0.01 | 0.01 | 75 | 1020.9 |
| 20260506215509 | 56 | 235 | 4.0 | 11.0 | 0.00 | 0.01 | 0.01 | 76 | 1021.0 |
| 20260506215008 | 56 | 241 | 5.0 | 11.0 | 0.00 | 0.01 | 0.01 | 75 | 1021.0 |
| 20260506214511 | 56 | 259 | 5.0 | 11.0 | 0.00 | 0.01 | 0.01 | 75 | 1021.0 |
| 20260506214008 | 56 | 250 | 5.0 | 10.0 | 0.00 | 0.01 | 0.01 | 75 | 1021.0 |
| 20260506213506 | 56 | 284 | 5.0 | 10.0 | 0.00 | 0.01 | 0.01 | 76 | 1021.0 |
| 20260506213012 | 56 | 204 | 6.0 | 10.0 | 0.00 | 0.01 | 0.01 | 75 | 1021.0 |
| 20260506212506 | 56 | 271 | 6.0 | 10.0 | 0.00 | 0.01 | 0.01 | 75 | 1021.0 |
| 20260506212007 | 56 | 279 | 5.0 | 11.0 | 0.00 | 0.01 | 0.01 | 75 | 1021.0 |
| 20260506211516 | 56 | 252 | 6.0 | 11.0 | 0.00 | 0.01 | 0.01 | 74 | 1021.1 |
| 20260506211008 | 56 | 194 | 5.0 | 9.0 | 0.00 | 0.01 | 0.01 | 76 | 1020.9 |
| 20260506210507 | 56 | 220 | 5.0 | 9.0 | 0.00 | 0.01 | 0.01 | 75 | 1021.0 |
| 20260506210016 | 56 | 270 | 5.0 | 9.0 | 0.00 | 0.01 | 0.01 | 76 | 1021.0 |
| 20260506205509 | 56 | 259 | 5.0 | 9.0 | 0.00 | 0.01 | 0.01 | 76 | 1021.0 |
| 20260506205005 | 56 | 305 | 4.0 | 9.0 | 0.00 | 0.01 | 0.01 | 76 | 1020.9 |
| 20260506204515 | 56 | 249 | 5.0 | 14.0 | 0.00 | 0.01 | 0.01 | 77 | 1021.0 |
| 20260506204005 | 56 | 275 | 6.0 | 14.0 | 0.00 | 0.01 | 0.01 | 76 | 1020.9 |
| 20260506203511 | 56 | 302 | 8.0 | 12.0 | 0.00 | 0.01 | 0.01 | 75 | 1020.8 |
| 20260506203003 | 56 | 242 | 5.0 | 12.0 | 0.00 | 0.01 | 0.01 | 75 | 1020.8 |
| 20260506202503 | 56 | 241 | 5.0 | 13.0 | 0.00 | 0.01 | 0.01 | 76 | 1020.8 |
| 20260506202006 | 56 | 256 | 7.0 | 13.0 | 0.00 | 0.01 | 0.01 | 75 | 1020.8 |
| 20260506201507 | 56 | 257 | 5.0 | 10.0 | 0.00 | 0.01 | 0.01 | 76 | 1020.8 |
| 20260506201007 | 56 | 279 | 5.0 | 11.0 | 0.00 | 0.01 | 0.01 | 75 | 1020.8 |
| 20260506200506 | 56 | 220 | 5.0 | 11.0 | 0.00 | 0.01 | 0.01 | 76 | 1020.7 |
| 20260506200011 | 56 | 276 | 4.0 | 10.0 | 0.00 | 0.01 | 0.01 | 76 | 1020.7 |
| 20260506195507 | 56 | 202 | 3.0 | 10.0 | 0.00 | 0.01 | 0.01 | 77 | 1020.7 |
| 20260506195008 | 56 | 273 | 5.0 | 10.0 | 0.00 | 0.01 | 0.01 | 75 | 1020.7 |
| 20260506194515 | 56 | 283 | 5.0 | 10.0 | 0.00 | 0.01 | 0.01 | 76 | 1020.7 |
| 20260506194007 | 56 | 231 | 5.0 | 10.0 | 0.00 | 0.01 | 0.01 | 77 | 1020.6 |
| 20260506193505 | 56 | 252 | 5.0 | 10.0 | 0.00 | 0.01 | 0.01 | 77 | 1020.6 |
| 20260506193017 | 56 | 273 | 3.0 | 8.0 | 0.00 | 0.01 | 0.01 | 78 | 1020.6 |
| 20260506192506 | 56 | 253 | 4.0 | 8.0 | 0.00 | 0.01 | 0.01 | 78 | 1020.5 |
| 20260506192004 | 56 | 255 | 3.0 | 9.0 | 0.00 | 0.01 | 0.01 | 78 | 1020.5 |
| 20260506191507 | 55 | 246 | 4.0 | 9.0 | 0.00 | 0.01 | 0.01 | 77 | 1020.4 |
| 20260506191003 | 55 | 264 | 4.0 | 8.0 | 0.00 | 0.01 | 0.01 | 78 | 1020.5 |
| 20260506190507 | 55 | 262 | 4.0 | 8.0 | 0.00 | 0.01 | 0.01 | 78 | 1020.5 |
| 20260506190010 | 55 | 219 | 3.0 | 9.0 | 0.00 | 0.01 | 0.01 | 79 | 1020.6 |
| 20260506185504 | 55 | 227 | 4.0 | 8.0 | 0.00 | 0.01 | 0.01 | 79 | 1020.6 |
| 20260506185009 | 55 | 259 | 4.0 | 8.0 | 0.00 | 0.01 | 0.01 | 79 | 1020.5 |
| 20260506184516 | 54 | 254 | 5.0 | 9.0 | 0.00 | 0.01 | 0.01 | 79 | 1020.5 |
| 20260506184011 | 54 | 292 | 4.0 | 12.0 | 0.00 | 0.01 | 0.01 | 80 | 1020.5 |
| 20260506183508 | 54 | 267 | 2.0 | 12.0 | 0.00 | 0.01 | 0.01 | 80 | 1020.6 |
| 20260506183028 | 54 | 229 | 3.0 | 7.0 | 0.00 | 0.01 | 0.01 | 81 | 1020.6 |
| 20260506182504 | 54 | 265 | 3.0 | 7.0 | 0.00 | 0.01 | 0.01 | 81 | 1020.6 |
| 20260506182006 | 54 | 253 | 2.0 | 7.0 | 0.00 | 0.01 | 0.01 | 80 | 1020.6 |
| 20260506181516 | 54 | 276 | 3.0 | 7.0 | 0.00 | 0.01 | 0.01 | 80 | 1020.4 |
| 20260506181002 | 54 | 234 | 3.0 | 9.0 | 0.00 | 0.01 | 0.01 | 80 | 1020.4 |
| 20260506180504 | 54 | 221 | 4.0 | 9.0 | 0.00 | 0.01 | 0.01 | 81 | 1020.3 |
| 20260506180011 | 54 | 254 | 4.0 | 8.0 | 0.00 | 0.01 | 0.01 | 81 | 1020.3 |
| 20260506175507 | 54 | 260 | 4.0 | 7.0 | 0.00 | 0.01 | 0.01 | 82 | 1020.4 |
| 20260506175006 | 54 | 246 | 3.0 | 8.0 | 0.00 | 0.01 | 0.01 | 82 | 1020.3 |
| 20260506174512 | 54 | 275 | 3.0 | 9.0 | 0.00 | 0.01 | 0.01 | 83 | 1020.3 |
| 20260506174008 | 53 | 273 | 4.0 | 11.0 | 0.00 | 0.01 | 0.01 | 83 | 1020.4 |
| 20260506173508 | 53 | 213 | 6.0 | 11.0 | 0.00 | 0.01 | 0.01 | 84 | 1020.3 |
| 20260506173019 | 53 | 309 | 6.0 | 10.0 | 0.00 | 0.01 | 0.01 | 84 | 1020.3 |
| 20260506172508 | 53 | 225 | 5.0 | 9.0 | 0.00 | 0.01 | 0.01 | 84 | 1020.4 |
| 20260506172008 | 53 | 277 | 3.0 | 10.0 | 0.00 | 0.01 | 0.01 | 85 | 1020.4 |
| 20260506171526 | 53 | 286 | 5.0 | 10.0 | 0.00 | 0.01 | 0.01 | 85 | 1020.4 |
| 20260506171009 | 53 | 229 | 5.0 | 10.0 | 0.00 | 0.01 | 0.01 | 86 | 1020.4 |
| 20260506170510 | 53 | 276 | 5.0 | 10.0 | 0.00 | 0.01 | 0.01 | 85 | 1020.3 |
| 20260506170007 | 53 | 238 | 5.0 | 8.0 | 0.00 | 0.01 | 0.01 | 84 | 1020.3 |
| 20260506165505 | 54 | 261 | 4.0 | 9.0 | 0.00 | 0.01 | 0.01 | 84 | 1020.4 |
| 20260506165008 | 54 | 273 | 5.0 | 9.0 | 0.00 | 0.01 | 0.01 | 84 | 1020.4 |
| 20260506164512 | 54 | 192 | 4.0 | 7.0 | 0.00 | 0.01 | 0.01 | 85 | 1020.3 |
| 20260506164011 | 53 | 254 | 2.0 | 7.0 | 0.00 | 0.01 | 0.01 | 86 | 1020.1 |
| 20260506163506 | 53 | 229 | 3.0 | 7.0 | 0.00 | 0.01 | 0.01 | 87 | 1020.0 |
| 20260506163015 | 53 | 213 | 4.0 | 7.0 | 0.00 | 0.01 | 0.01 | 86 | 1019.9 |
| 20260506162507 | 53 | 209 | 3.0 | 7.0 | 0.00 | 0.01 | 0.01 | 88 | 1019.9 |
| 20260506162013 | 53 | 238 | 4.0 | 7.0 | 0.00 | 0.01 | 0.01 | 88 | 1019.7 |
| 20260506161522 | 52 | 240 | 2.0 | 5.0 | 0.00 | 0.01 | 0.01 | 89 | 1019.7 |
| 20260506161008 | 52 | 203 | 3.0 | 5.0 | 0.00 | 0.01 | 0.01 | 90 | 1019.7 |
| 20260506160507 | 52 | 261 | 3.0 | 5.0 | 0.00 | 0.01 | 0.01 | 91 | 1019.8 |
| 20260506160017 | 52 | 240 | 3.0 | 5.0 | 0.00 | 0.01 | 0.01 | 91 | 1019.9 |
| 20260506155508 | 51 | 231 | 3.0 | 5.0 | 0.00 | 0.01 | 0.01 | 92 | 1020.0 |
| 20260506155009 | 51 | 219 | 3.0 | 4.0 | 0.00 | 0.01 | 0.01 | 92 | 1020.1 |
| 20260506154508 | 51 | 259 | 2.0 | 4.0 | 0.00 | 0.01 | 0.01 | 92 | 1020.1 |
| 20260506154008 | 51 | 265 | 2.0 | 5.0 | 0.00 | 0.01 | 0.01 | 93 | 1020.0 |
| 20260506153506 | 51 | 266 | 2.0 | 5.0 | 0.00 | 0.01 | 0.01 | 93 | 1020.0 |
| 20260506153014 | 51 | 279 | 2.0 | 6.0 | 0.00 | 0.01 | 0.01 | 93 | 1020.0 |
| 20260506152506 | 51 | 275 | 2.0 | 6.0 | 0.00 | 0.01 | 0.01 | 93 | 1019.8 |
| 20260506152008 | 51 | 234 | 4.0 | 6.0 | 0.00 | 0.01 | 0.01 | 93 | 1019.6 |
| 20260506151520 | 51 | 248 | 3.0 | 5.0 | 0.00 | 0.01 | 0.01 | 93 | 1019.5 |
| 20260506151009 | 51 | 248 | 3.0 | 5.0 | 0.00 | 0.01 | 0.01 | 93 | 1019.6 |
| 20260506150509 | 51 | 248 | 2.0 | 5.0 | 0.00 | 0.01 | 0.01 | 93 | 1019.6 |
| 20260506150020 | 51 | 248 | 3.0 | 7.0 | 0.00 | 0.01 | 0.01 | 93 | 1019.7 |
| 20260506145508 | 51 | 273 | 3.0 | 7.0 | 0.00 | 0.01 | 0.01 | 93 | 1019.6 |
| 20260506145009 | 51 | 219 | 2.0 | 6.0 | 0.00 | 0.01 | 0.01 | 93 | 1019.7 |
| 20260506144523 | 51 | 246 | 3.0 | 6.0 | 0.00 | 0.01 | 0.01 | 93 | 1019.7 |
| 20260506144008 | 51 | 251 | 2.0 | 6.0 | 0.00 | 0.01 | 0.01 | 93 | 1019.7 |
| 20260506143505 | 51 | 250 | 2.0 | 4.0 | 0.00 | 0.01 | 0.01 | 92 | 1019.6 |
| 20260506143022 | 51 | 269 | 2.0 | 4.0 | 0.00 | 0.01 | 0.01 | 92 | 1019.5 |
| 20260506142506 | 51 | 272 | 2.0 | 5.0 | 0.00 | 0.01 | 0.01 | 92 | 1019.5 |
| 20260506142007 | 51 | 234 | 3.0 | 5.0 | 0.00 | 0.01 | 0.01 | 92 | 1019.3 |
| 20260506141517 | 51 | 227 | 3.0 | 4.0 | 0.00 | 0.01 | 0.01 | 92 | 1019.4 |
| 20260506141009 | 51 | 249 | 2.0 | 4.0 | 0.00 | 0.01 | 0.01 | 92 | 1019.6 |
| 20260506140507 | 51 | 238 | 2.0 | 6.0 | 0.00 | 0.01 | 0.01 | 92 | 1019.5 |
| 20260506140022 | 51 | 282 | 2.0 | 7.0 | 0.00 | 0.01 | 0.01 | 91 | 1019.6 |
| 20260506135514 | 52 | 274 | 2.0 | 7.0 | 0.00 | 0.01 | 0.01 | 91 | 1019.6 |
| 20260506135008 | 52 | 236 | 2.0 | 6.0 | 0.00 | 0.01 | 0.01 | 91 | 1019.5 |
| 20260506134523 | 51 | 223 | 3.0 | 8.0 | 0.00 | 0.01 | 0.01 | 91 | 1019.2 |
| 20260506134009 | 51 | 235 | 3.0 | 8.0 | 0.00 | 0.01 | 0.01 | 91 | 1019.4 |
| 20260506133510 | 52 | 259 | 4.0 | 7.0 | 0.00 | 0.01 | 0.01 | 90 | 1019.3 |
| 20260506133024 | 52 | 216 | 3.0 | 6.0 | 0.00 | 0.01 | 0.01 | 90 | 1019.3 |